Simultaneous Nadir Overpasses (SNOs) Predictions

Prediction of SNOs between AQUA and NPP Satellite Orbit:

Table of predicted SNOs for the next 14.0 days since TLE Epoch: 2/2/2013
Index Date (AQUA) Time (AQUA) Lat,Lon (AQUA) SZA (AQUA ) Date (NPP) Time (NPP) Lat,Lon (NPP) SZA (NPP ) Distance(km) Time Diff (sec)
1 02/03/2013 23:27:19 -76.98,-109.53 67.35 02/03/2013 23:27:05 -76.97,-109.57 67.33 1.15 14
2 02/04/2013 00:16:27 77.78, 61.35 111.66 02/04/2013 00:17:30 77.79, 61.40 111.60 1.18 63
3 02/06/2013 14:54:26 76.64,-162.49 112.27 02/06/2013 14:53:25 76.64,-162.44 112.31 1.44 61
4 02/06/2013 15:43:36 -77.45, 8.22 68.72 02/06/2013 15:43:52 -77.46, 8.31 68.75 2.25 16
5 02/09/2013 07:10:50 76.75, -46.21 111.32 02/09/2013 07:10:21 76.74, -46.30 111.37 2.47 29
6 02/09/2013 08:00:00 -77.56, 124.55 69.67 02/09/2013 08:00:48 -77.56, 124.50 69.70 1.27 48
7 02/11/2013 22:38:17 -75.38,-102.23 67.97 02/11/2013 22:37:03 -75.42,-102.41 67.88 6.59 74
8 02/11/2013 23:27:06 77.13, 71.11 110.00 02/11/2013 23:27:09 77.13, 71.06 110.01 1.25 3
9 02/14/2013 14:54:16 -76.61, 17.49 70.26 02/14/2013 14:53:35 -76.61, 17.40 70.20 2.54 41




NCC Satellite Simultaneous Nadir Overpasses (SNOs) Prediction Service
